Weather History for Val Marie Southeast, SK

Change the Weather History Date:

Sunday, March 16, 2014

  Actual Average Record
Temperature  
Mean Temperature 44 °F -  
Max Temperature 58 °F - - ()
Min Temperature 29 °F - - ()
Degree Days  
Heating Degree Days 22    
Moisture  
Dew Point 30 °F    
Average Humidity 62    
Maximum Humidity 94    
Minimum Humidity 25    
Precipitation  
Precipitation 0.00 in - - ()
Sea Level Pressure  
Sea Level Pressure 29.86 in    
Wind  
Wind Speed 14 mph ()    
Max Wind Speed 33 mph    
Max Gust Speed 40 mph    
T = Trace of Precipitation, MM = Missing Value Source: Averaged Metar Reports

Daily Weather History Graph

Daily Weather History Graph

Search for Another Location

Airport:

Trip Planner

Search our weather history database for the weather conditions in past years. The results will help you decide how hot, cold, wet, or windy it might be!

Date:

Astronomy

Mar. 16, 2014 Rise Set
Actual Time 7:21 AM CST 7:17 PM CST
Civil Twilight 6:49 AM CST 7:48 PM CST
Nautical Twilight 6:12 AM CST 8:25 PM CST
Astronomical Twilight 5:35 AM CST 9:04 PM CST
Moon 7:42 PM CST (3/16) 7:04 AM CST (3/16)
Length of Visible Light 12h 58m
Length of Day
11h 55m
Full, 100% of the Moon is Illuminated
Mar 16
Full
Mar 23
Last Quarter
Mar 30
New
Apr 7
First Quarter
Apr 15
Full

Hourly Weather History & Observations

Time (CST) Temp. Windchill Dew Point Humidity Pressure Visibility Wind Dir Wind Speed Gust Speed Precip Events Conditions
12:00 AM 30 °F - 27 °F 85% 30.16 in - South 12.7 mph - -  
12:00 AM 29.8 °F 19.8 °F 27.3 °F 90% 30.16 in - South 12.7 mph 18.4 mph N/A   Unknown
1:00 AM 30.7 °F 20.4 °F 27.9 °F 89% 30.12 in - South 13.8 mph - N/A   Unknown
2:00 AM 31.6 °F 20.4 °F 28.6 °F 88% 30.05 in - South 17.3 mph - N/A   Unknown
3:00 AM 32 °F - 29 °F 84% 30.06 in - SSW 12.7 mph - -  
3:00 AM 32.0 °F 22.5 °F 28.9 °F 88% 30.06 in - SSW 12.7 mph - N/A   Unknown
4:00 AM 31.3 °F 20.3 °F 29.7 °F 94% 30.02 in - SSW 16.1 mph - N/A   Unknown
5:00 AM 33.3 °F 23.7 °F 29.8 °F 87% 29.98 in - SSW 13.8 mph - N/A   Unknown
6:00 AM 34 °F - 30 °F 78% 29.95 in - SSW 13.8 mph - -  
6:00 AM 34.0 °F 24.6 °F 29.7 °F 84% 29.95 in - SSW 13.8 mph - N/A   Unknown
7:00 AM 33.6 °F 24.6 °F 29.1 °F 84% 29.92 in - SSW 12.7 mph - N/A   Unknown
8:00 AM 35.8 °F 28.8 °F 28.6 °F 75% 29.89 in - SW 9.2 mph - N/A   Unknown
9:00 AM 45 °F - 26 °F 35% 29.88 in - West 15.0 mph - -  
9:00 AM 45.1 °F 38.4 °F 26.2 °F 48% 29.88 in - West 15.0 mph - N/A   Unknown
10:00 AM 46.6 °F - 25.7 °F 44% 29.87 in - West 19.6 mph 27.6 mph N/A   Unknown
11:00 AM 53.8 °F - 27.3 °F 36% 29.84 in - West 28.8 mph 34.5 mph N/A   Unknown
12:00 PM 56 °F - 30 °F 25% 29.83 in - WNW 31.1 mph - -  
12:00 PM 55.9 °F - 30.2 °F 37% 29.83 in - WNW 31.1 mph 39.1 mph N/A   Unknown
1:00 PM 55.9 °F - 31.3 °F 39% 29.82 in - WNW 33.4 mph 40.3 mph N/A   Unknown
2:00 PM 57.6 °F - 33.3 °F 40% 29.79 in - WNW 27.6 mph 35.7 mph N/A   Unknown
3:00 PM 56 °F - 31 °F 27% 29.78 in - WNW 26.5 mph - -  
3:00 PM 55.9 °F - 31.3 °F 39% 29.78 in - WNW 26.5 mph 33.4 mph N/A   Unknown
4:00 PM 56.7 °F - 32.9 °F 41% 29.76 in - WNW 21.9 mph 27.6 mph N/A   Unknown
5:00 PM 56.7 °F - 33.6 °F 42% 29.74 in - WNW 20.7 mph 26.5 mph N/A   Unknown
6:00 PM 53 °F - 34 °F 36% 29.71 in - NW 13.8 mph - -  
6:00 PM 53.4 °F - 33.8 °F 47% 29.71 in - NW 13.8 mph - N/A   Unknown
7:00 PM 48.7 °F - 34.9 °F 59% 29.70 in - West 8.1 mph - N/A   Unknown
8:00 PM 43.0 °F 41.3 °F 34.0 °F 71% 29.69 in - WNW 3.5 mph - N/A   Unknown
9:00 PM 41 °F - 34 °F 68% 29.65 in - WSW 1.2 mph - -  
9:00 PM 41.4 °F - 34.0 °F 75% 29.65 in - WSW 1.2 mph - N/A   Unknown
10:00 PM 43.0 °F 37.7 °F 34.3 °F 72% 29.64 in - West 9.2 mph - N/A   Unknown
11:00 PM 36.1 °F 29.9 °F 31.8 °F 84% 29.62 in - West 8.1 mph - N/A   Unknown